Flag for U.S.A. Weather past 2 weeks in Ontario, California, U.S.A.

Now
70 °F

Passing clouds.


Feels Like: 73 °F
Forecast: 42 / 74 °F
Wind: 3 mph from North

Location: Ontario International Airport

Current Time: Mar 5, 2015 at 12:44:52 PM

Latest Report: Mar 5, 2015 at 11:53 AM


Visibility: 10 mi

Pressure: 30.24 "Hg

Humidity: 16%

Dew point: 22 °F

Location of OntarioLocation

Historic Weather in Ontario — Graph

°F

Ontario temperature yesterday

Maximum temperature yesterday: 70 °F (at 2:53 PM)
Minimum temperature yesterday: 45 °F (at 4:53 AM)
Average temperature yesterday: 58 °F

Past Weeks' High & Low Weather Summary

 TemperatureHumidityPressure
High78 °F (Feb 18, 1:53 PM)97% (Feb 19, 7:53 AM)30.27 "Hg (Feb 19, 7:53 AM)
Low42 °F (Feb 24, 5:53 AM)19% (Feb 24, 2:53 PM)29.74 "Hg (Feb 27, 6:53 PM)
Average56 °F65%29.97 "Hg
* Reported Feb 18 10:53 AM — Mar 5 10:53 AM, Ontario, Weather by CustomWeather, © 2015

Note: Actual official high and low records may vary slightly from our data, if they occured in-between our weather recording intervals... More about our weather records

Advertising

Ontario weather history for previous 24 hours

 ConditionsComfort  
Time TempWeatherWind HumidityBarometerVisibility
10:53 AM
Thu, Mar 5
67 °FPassing clouds.6 mph21%30.25 "Hg10 mi
9:53 AM64 °FScattered clouds.3 mph25%30.26 "Hg10 mi
8:53 AM58 °FPassing clouds.3 mph38%30.27 "Hg10 mi
7:53 AM52 °FPassing clouds.No wind55%30.26 "Hg10 mi
6:53 AM46 °FPassing clouds.No wind63%30.24 "Hg10 mi
5:53 AM46 °FPassing clouds.5 mph58%30.21 "Hg10 mi
4:53 AM46 °FPassing clouds.5 mph63%30.19 "Hg10 mi
3:53 AM48 °FPassing clouds.5 mph59%30.16 "Hg10 mi
2:53 AM49 °FPassing clouds.3 mph55%30.16 "Hg10 mi
1:53 AM49 °FPassing clouds.No wind57%30.17 "Hg10 mi
12:53 AM50 °FPassing clouds.5 mph61%30.16 "Hg10 mi
11:53 PM
Wed, Mar 4
50 °FPassing clouds.No wind61%30.15 "Hg10 mi
10:53 PM55 °FPassing clouds.No wind49%30.15 "Hg10 mi
9:53 PM56 °FPassing clouds.No wind47%30.15 "Hg10 mi
8:53 PM59 °FPassing clouds.3 mph41%30.13 "Hg10 mi
7:53 PM61 °FPassing clouds.5 mph38%30.11 "Hg10 mi
6:53 PM63 °FPassing clouds.8 mph34%30.09 "Hg10 mi
5:53 PM67 °FPassing clouds.6 mph24%30.07 "Hg10 mi
4:53 PM68 °FPassing clouds.9 mph22%30.05 "Hg10 mi
3:53 PM70 °FPassing clouds.No wind20%30.04 "Hg10 mi
2:53 PM70 °FPassing clouds.5 mph21%30.04 "Hg10 mi
1:53 PM69 °FPassing clouds.5 mph22%30.04 "Hg10 mi
12:53 PM68 °FPassing clouds.3 mph23%30.06 "Hg10 mi
Weather by CustomWeather, © 2015

See weather overviewHow to use our weather pages